QPF
0.00 0.00 0.00 0.00 0.00 0.00 0.00 0.00 0.00 0.00 0.00 0.00 0.00 0.00 0.00 0.00 0.01 0.00 0.00 0.00 0.00 0.00 0.00 0.00 0.00 0.00 0.00 0.01 0.02 0.02 0.03 0.04 0.06 0.07 0.08 0.09 0.09 0.09 0.08 0.08 0.09 0.09 0.08
0.00 0.00 0.00 0.00 0.00 0.00 0.00 0.00 0.00 0.00 0.00 0.00 0.00 0.00 0.00 0.00 0.00 0.01 0.01 0.01 0.01 0.00 0.00 0.00 0.00 0.00 0.00 0.00 0.01 0.02 0.02 0.03 0.04 0.05 0.06 0.08 0.09 0.07 0.07 0.07 0.07 0.08 0.08
0.00 0.00 0.00 0.00 0.00 0.00 0.00 0.00 0.00 0.00 0.00 0.00 0.00 0.00 0.00 0.00 0.00 0.00 0.00 0.00 0.00 0.00 0.00 0.00 0.00 0.00 0.00 0.00 0.01 0.02 0.02 0.03 0.03 0.04 0.05 0.06 0.09 0.08 0.07 0.06 0.07 0.08 0.09
0.00 0.00 0.00 0.00 0.00 0.00 0.00 0.00 0.00 0.00 0.00 0.00 0.00 0.00 0.00 0.00 0.00 0.00 0.00 0.00 0.00 0.00 0.00 0.00 0.00 0.00 0.00 0.01 0.01 0.02 0.01 0.01 0.02 0.03 0.04 0.05 0.06 0.09 0.08 0.07 0.07 0.08 0.09
0.00 0.00 0.00 0.00 0.00 0.00 0.00 0.00 0.00 0.00 0.00 0.00 0.00 0.00 0.00 0.00 0.00 0.00 0.00 0.00 0.00 0.01 0.01 0.00 0.00 0.00 0.01 0.01 0.01 0.01 0.02 0.02 0.02 0.03 0.04 0.05 0.05 0.05 0.07 0.08 0.07 0.07 0.06
0.00 0.00 0.00 0.00 0.00 0.00 0.00 0.00 0.00 0.00 0.00 0.00 0.00 0.00 0.00 0.00 0.00 0.00 0.00 0.00 0.00 0.01 0.01 0.01 0.01 0.02 0.02 0.02 0.02 0.02 0.02 0.02 0.02 0.02 0.04 0.06 0.06 0.05 0.05 0.06 0.06 0.06 0.05
0.00 0.00 0.00 0.00 0.00 0.00 0.00 0.00 0.00 0.00 0.00 0.00 0.00 0.00 0.00 0.00 0.00 0.00 0.00 0.00 0.00 0.01 0.01 0.01 0.02 0.04 0.05 0.04 0.03 0.02 0.02 0.02 0.03 0.02 0.02 0.04 0.04 0.05 0.05 0.06 0.06 0.05 0.05
0.00 0.00 0.00 0.00 0.00 0.00 0.00 0.00 0.00 0.00 0.00 0.00 0.00 0.00 0.00 0.00 0.00 0.00 0.00 0.00 0.00 0.00 0.01 0.02 0.02 0.03 0.03 0.02 0.02 0.02 0.02 0.02 0.02 0.01 0.02 0.03 0.03 0.03 0.05 0.05 0.05 0.04 0.04
0.00 0.00 0.00 0.00 0.00 0.00 0.00 0.00 0.00 0.00 0.00 0.00 0.00 0.00 0.00 0.00 0.00 0.00 0.00 0.00 0.00 0.00 0.01 0.02 0.04 0.04 0.02 0.01 0.02 0.02 0.01 0.01 0.02 0.02 0.02 0.03 0.03 0.03 0.05 0.05 0.05 0.05 0.03
0.00 0.00 0.00 0.00 0.00 0.00 0.00 0.00 0.00 0.00 0.00 0.00 0.00 0.00 0.00 0.00 0.00 0.00 0.00 0.00 0.00 0.01 0.01 0.01 0.03 0.05 0.06 0.03 0.03 0.03 0.01 0.01 0.01 0.02 0.02 0.02 0.03 0.03 0.04 0.05 0.05 0.05 0.05
0.00 0.00 0.00 0.00 0.00 0.00 0.00 0.00 0.00 0.00 0.00 0.00 0.00 0.00 0.00 0.00 0.00 0.00 0.00 0.00 0.00 0.01 0.01 0.01 0.02 0.03 0.06 0.05 0.03 0.03 0.01 0.01 0.01 0.02 0.02 0.02 0.03 0.03 0.03 0.04 0.04 0.04 0.03
0.00 0.00 0.00 0.00 0.00 0.00 0.00 0.00 0.00 0.00 0.00 0.00 0.00 0.00 0.00 0.00 0.00 0.00 0.00 0.00 0.01 0.01 0.01 0.01 0.02 0.02 0.02 0.02 0.03 0.02 0.02 0.02 0.01 0.01 0.01 0.02 0.03 0.03 0.03 0.04 0.04 0.04 0.04
0.00 0.00 0.00 0.00 0.00 0.00 0.00 0.00 0.00 0.00 0.00 0.00 0.00 0.00 0.00 0.00 0.00 0.00 0.00 0.00 0.01 0.01 0.02 0.02 0.02 0.02 0.02 0.02 0.03 0.04 0.04 0.04 0.03 0.02 0.02 0.02 0.02 0.03 0.02 0.03 0.04 0.04 0.05
0.00 0.00 0.00 0.00 0.00 0.00 0.00 0.00 0.00 0.00 0.00 0.00 0.00 0.00 0.00 0.00 0.00 0.00 0.00 0.00 0.00 0.01 0.01 0.02 0.03 0.03 0.03 0.02 0.03 0.04 0.06 0.05 0.05 0.03 0.03 0.02 0.02 0.03 0.02 0.02 0.02 0.03 0.04
0.00 0.00 0.00 0.00 0.00 0.00 0.00 0.00 0.00 0.00 0.00 0.00 0.00 0.00 0.00 0.00 0.00 0.00 0.00 0.00 0.00 0.00 0.01 0.02 0.02 0.03 0.02 0.02 0.02 0.03 0.03 0.04 0.03 0.03 0.03 0.03 0.02 0.02 0.03 0.02 0.02 0.02 0.03
0.00 0.00 0.00 0.00 0.00 0.00 0.00 0.00 0.00 0.00 0.00 0.00 0.00 0.00 0.00 0.00 0.00 0.00 0.00 0.00 0.00 0.00 0.01 0.02 0.01 0.01 0.01 0.01 0.01 0.01 0.02 0.02 0.02 0.02 0.01 0.01 0.01 0.01 0.02 0.03 0.03 0.02 0.02
0.00 0.00 0.00 0.00 0.00 0.00 0.00 0.00 0.00 0.00 0.00 0.00 0.00 0.00 0.00 0.00 0.00 0.00 0.00 0.00 0.00 0.00 0.00 0.01 0.02 0.02 0.02 0.02 0.01 0.01 0.01 0.01 0.01 0.02 0.02 0.01 0.01 0.01 0.01 0.02 0.04 0.04 0.03
0.00 0.00 0.00 0.00 0.00 0.00 0.00 0.00 0.00 0.00 0.00 0.00 0.00 0.00 0.00 0.00 0.00 0.00 0.00 0.00 0.00 0.00 0.00 0.00 0.01 0.01 0.01 0.01 0.01 0.00 0.00 0.00 0.01 0.02 0.03 0.02 0.01 0.02 0.01 0.01 0.01 0.02 0.03
0.00 0.00 0.00 0.00 0.00 0.00 0.00 0.00 0.00 0.00 0.00 0.00 0.00 0.00 0.00 0.00 0.00 0.00 0.00 0.00 0.00 0.00 0.00 0.00 0.00 0.00 0.00 0.00 0.00 0.00 0.00 0.00 0.01 0.01 0.01 0.02 0.02 0.03 0.02 0.02 0.01 0.01 0.02
0.00 0.00 0.00 0.00 0.00 0.00 0.00 0.00 0.00 0.00 0.00 0.00 0.00 0.00 0.00 0.00 0.00 0.00 0.00 0.00 0.00 0.00 0.00 0.00 0.00 0.00 0.00 0.00 0.00 0.00 0.00 0.00 0.01 0.01 0.01 0.01 0.02 0.04 0.03 0.02 0.01 0.01 0.02
0.00 0.00 0.00 0.00 0.00 0.00 0.00 0.00 0.00 0.00 0.00 0.00 0.00 0.00 0.00 0.00 0.00 0.00 0.00 0.00 0.00 0.00 0.00 0.00 0.00 0.00 0.00 0.01 0.01 0.01 0.00 0.00 0.00 0.00 0.00 0.01 0.03 0.04 0.04 0.03 0.03 0.02 0.03
0.00 0.00 0.00 0.00 0.00 0.00 0.00 0.00 0.00 0.00 0.00 0.00 0.00 0.00 0.00 0.00 0.00 0.00 0.00 0.00 0.00 0.00 0.00 0.00 0.00 0.00 0.00 0.00 0.00 0.00 0.00 0.00 0.00 0.00 0.00 0.00 0.01 0.02 0.02 0.03 0.03 0.03 0.03
0.00 0.00 0.00 0.00 0.00 0.00 0.00 0.00 0.00 0.00 0.00 0.00 0.00 0.00 0.00 0.00 0.00 0.00 0.00 0.00 0.00 0.00 0.00 0.00 0.00 0.00 0.00 0.00 0.00 0.00 0.00 0.00 0.00 0.00 0.00 0.01 0.01 0.01 0.01 0.01 0.03 0.03 0.02
0.00 0.00 0.00 0.00 0.00 0.00 0.00 0.00 0.00 0.00 0.00 0.00 0.00 0.00 0.00 0.00 0.00 0.00 0.00 0.00 0.00 0.00 0.00 0.00 0.00 0.00 0.00 0.00 0.00 0.00 0.00 0.00 0.00 0.01 0.01 0.02 0.01 0.01 0.01 0.01 0.02 0.03 0.02
0.00 0.00 0.00 0.00 0.00 0.00 0.00 0.00 0.00 0.00 0.00 0.00 0.00 0.00 0.00 0.00 0.00 0.00 0.00 0.00 0.00 0.00 0.00 0.00 0.00 0.00 0.00 0.00 0.00 0.00 0.00 0.00 0.00 0.00 0.00 0.00 0.01 0.01 0.01 0.01 0.01 0.02 0.02
0.00 0.00 0.00 0.00 0.00 0.00 0.00 0.00 0.00 0.00 0.00 0.00 0.00 0.00 0.00 0.00 0.00 0.00 0.00 0.00 0.00 0.00 0.00 0.00 0.00 0.00 0.00 0.00 0.00 0.00 0.00 0.00 0.00 0.00 0.00 0.00 0.00 0.00 0.00 0.01 0.01 0.01 0.01
MSLP
1015.29 1015.44 1015.56 1015.60 1015.58 1015.51 1015.41 1015.32 1015.26 1015.27 1015.33 1015.43 1015.52 1015.56 1015.52 1015.38 1015.14 1014.82 1014.47 1014.12 1013.81 1013.57 1013.42 1013.33 1013.29 1013.26 1013.21 1013.13 1013.00 1012.85 1012.68 1012.52 1012.39 1012.29 1012.22 1012.16 1012.10 1012.02 1011.91 1011.78 1011.63 1011.49 1011.39
1015.32 1015.53 1015.67 1015.72 1015.69 1015.59 1015.45 1015.34 1015.29 1015.31 1015.40 1015.53 1015.65 1015.72 1015.69 1015.54 1015.27 1014.90 1014.50 1014.10 1013.75 1013.49 1013.32 1013.23 1013.19 1013.16 1013.12 1013.03 1012.89 1012.73 1012.56 1012.41 1012.30 1012.24 1012.22 1012.22 1012.23 1012.20 1012.12 1012.00 1011.84 1011.67 1011.52
1015.26 1015.53 1015.72 1015.80 1015.78 1015.67 1015.52 1015.39 1015.33 1015.36 1015.47 1015.62 1015.78 1015.87 1015.85 1015.70 1015.41 1015.03 1014.59 1014.16 1013.78 1013.49 1013.31 1013.20 1013.14 1013.09 1013.02 1012.91 1012.75 1012.57 1012.40 1012.26 1012.18 1012.16 1012.21 1012.28 1012.34 1012.37 1012.33 1012.22 1012.06 1011.86 1011.67
1015.09 1015.44 1015.70 1015.84 1015.84 1015.74 1015.59 1015.45 1015.38 1015.41 1015.53 1015.70 1015.88 1016.00 1016.00 1015.87 1015.59 1015.20 1014.76 1014.32 1013.93 1013.63 1013.42 1013.28 1013.19 1013.11 1013.00 1012.84 1012.65 1012.45 1012.27 1012.14 1012.08 1012.10 1012.19 1012.31 1012.43 1012.50 1012.49 1012.39 1012.22 1012.00 1011.77
1014.84 1015.28 1015.62 1015.82 1015.87 1015.79 1015.65 1015.51 1015.43 1015.44 1015.56 1015.75 1015.94 1016.08 1016.12 1016.02 1015.78 1015.43 1015.01 1014.59 1014.21 1013.90 1013.67 1013.51 1013.38 1013.25 1013.09 1012.89 1012.66 1012.43 1012.23 1012.09 1012.04 1012.07 1012.18 1012.33 1012.47 1012.56 1012.56 1012.47 1012.29 1012.04 1011.78
1014.55 1015.06 1015.48 1015.76 1015.86 1015.81 1015.68 1015.53 1015.44 1015.45 1015.55 1015.73 1015.94 1016.11 1016.18 1016.13 1015.95 1015.65 1015.29 1014.91 1014.55 1014.26 1014.03 1013.84 1013.68 1013.51 1013.31 1013.07 1012.80 1012.53 1012.30 1012.14 1012.07 1012.09 1012.19 1012.32 1012.46 1012.53 1012.53 1012.42 1012.23 1011.97 1011.69
1014.23 1014.81 1015.30 1015.64 1015.79 1015.78 1015.67 1015.52 1015.41 1015.39 1015.48 1015.65 1015.86 1016.04 1016.16 1016.16 1016.04 1015.82 1015.53 1015.21 1014.91 1014.64 1014.42 1014.23 1014.05 1013.85 1013.62 1013.34 1013.04 1012.74 1012.47 1012.28 1012.17 1012.15 1012.21 1012.30 1012.39 1012.44 1012.40 1012.28 1012.07 1011.80 1011.51
1013.91 1014.53 1015.08 1015.47 1015.67 1015.69 1015.59 1015.44 1015.32 1015.28 1015.34 1015.49 1015.70 1015.89 1016.04 1016.09 1016.04 1015.89 1015.67 1015.42 1015.18 1014.96 1014.76 1014.59 1014.41 1014.20 1013.95 1013.66 1013.33 1013.01 1012.71 1012.47 1012.32 1012.25 1012.24 1012.27 1012.30 1012.30 1012.23 1012.08 1011.86 1011.59 1011.30
1013.60 1014.24 1014.82 1015.24 1015.47 1015.52 1015.43 1015.29 1015.17 1015.11 1015.15 1015.28 1015.47 1015.67 1015.83 1015.92 1015.92 1015.83 1015.68 1015.50 1015.32 1015.15 1014.99 1014.84 1014.68 1014.49 1014.24 1013.95 1013.63 1013.29 1012.97 1012.70 1012.50 1012.37 1012.29 1012.25 1012.22 1012.16 1012.05 1011.89 1011.67 1011.42 1011.15
1013.30 1013.93 1014.51 1014.95 1015.19 1015.26 1015.20 1015.08 1014.96 1014.90 1014.93 1015.04 1015.21 1015.40 1015.57 1015.67 1015.70 1015.66 1015.57 1015.45 1015.32 1015.20 1015.08 1014.97 1014.84 1014.67 1014.46 1014.19 1013.88 1013.56 1013.23 1012.94 1012.70 1012.51 1012.38 1012.27 1012.17 1012.07 1011.93 1011.76 1011.56 1011.34 1011.10
1012.99 1013.59 1014.15 1014.57 1014.83 1014.92 1014.90 1014.81 1014.72 1014.67 1014.70 1014.81 1014.96 1015.14 1015.29 1015.40 1015.44 1015.43 1015.37 1015.28 1015.20 1015.12 1015.05 1014.97 1014.88 1014.76 1014.58 1014.35 1014.08 1013.78 1013.47 1013.18 1012.91 1012.69 1012.51 1012.35 1012.21 1012.07 1011.92 1011.76 1011.58 1011.39 1011.20
1012.64 1013.20 1013.71 1014.12 1014.38 1014.50 1014.52 1014.48 1014.44 1014.43 1014.49 1014.60 1014.75 1014.91 1015.05 1015.15 1015.19 1015.18 1015.14 1015.08 1015.03 1014.98 1014.94 1014.91 1014.85 1014.77 1014.64 1014.46 1014.23 1013.96 1013.68 1013.40 1013.14 1012.90 1012.69 1012.51 1012.34 1012.18 1012.03 1011.87 1011.72 1011.57 1011.42
1012.24 1012.73 1013.19 1013.57 1013.84 1013.99 1014.06 1014.09 1014.12 1014.18 1014.28 1014.42 1014.58 1014.74 1014.87 1014.95 1014.99 1014.98 1014.95 1014.91 1014.87 1014.84 1014.83 1014.82 1014.80 1014.75 1014.66 1014.52 1014.34 1014.12 1013.88 1013.62 1013.37 1013.14 1012.92 1012.72 1012.54 1012.37 1012.22 1012.08 1011.94 1011.82 1011.70
1011.74 1012.17 1012.58 1012.93 1013.20 1013.40 1013.54 1013.65 1013.77 1013.91 1014.07 1014.26 1014.44 1014.61 1014.74 1014.82 1014.85 1014.85 1014.82 1014.79 1014.76 1014.75 1014.76 1014.76 1014.76 1014.74 1014.67 1014.57 1014.42 1014.24 1014.03 1013.81 1013.59 1013.37 1013.16 1012.96 1012.78 1012.61 1012.45 1012.31 1012.19 1012.08 1011.98
1011.15 1011.52 1011.88 1012.21 1012.49 1012.73 1012.95 1013.15 1013.37 1013.60 1013.84 1014.08 1014.30 1014.49 1014.63 1014.72 1014.76 1014.77 1014.75 1014.73 1014.72 1014.72 1014.73 1014.74 1014.74 1014.72 1014.67 1014.58 1014.45 1014.30 1014.12 1013.94 1013.74 1013.55 1013.36 1013.18 1013.00 1012.83 1012.67 1012.52 1012.39 1012.27 1012.16
1010.48 1010.79 1011.12 1011.43 1011.73 1012.02 1012.30 1012.60 1012.91 1013.22 1013.54 1013.84 1014.11 1014.33 1014.50 1014.61 1014.67 1014.70 1014.70 1014.70 1014.71 1014.71 1014.72 1014.72 1014.71 1014.68 1014.61 1014.52 1014.40 1014.26 1014.11 1013.96 1013.80 1013.64 1013.48 1013.32 1013.15 1012.98 1012.81 1012.64 1012.49 1012.35 1012.22
1009.75 1010.03 1010.33 1010.64 1010.95 1011.28 1011.64 1012.00 1012.39 1012.78 1013.16 1013.52 1013.83 1014.09 1014.29 1014.43 1014.53 1014.59 1014.63 1014.65 1014.67 1014.68 1014.68 1014.66 1014.62 1014.56 1014.46 1014.35 1014.22 1014.09 1013.96 1013.83 1013.71 1013.59 1013.47 1013.34 1013.19 1013.02 1012.84 1012.65 1012.46 1012.29 1012.12
1009.01 1009.27 1009.56 1009.87 1010.21 1010.58 1010.97 1011.40 1011.84 1012.28 1012.71 1013.10 1013.45 1013.74 1013.97 1014.15 1014.29 1014.39 1014.46 1014.52 1014.55 1014.57 1014.55 1014.50 1014.42 1014.31 1014.18 1014.03 1013.88 1013.74 1013.62 1013.53 1013.45 1013.38 1013.30 1013.21 1013.09 1012.93 1012.75 1012.54 1012.32 1012.10 1011.90
1008.32 1008.58 1008.86 1009.18 1009.54 1009.94 1010.37 1010.82 1011.29 1011.76 1012.20 1012.61 1012.98 1013.29 1013.55 1013.76 1013.94 1014.08 1014.20 1014.28 1014.33 1014.35 1014.31 1014.23 1014.10 1013.94 1013.75 1013.56 1013.39 1013.24 1013.13 1013.07 1013.03 1013.01 1012.99 1012.94 1012.86 1012.73 1012.55 1012.34 1012.09 1011.84 1011.60
1007.72 1007.98 1008.28 1008.61 1008.99 1009.40 1009.84 1010.31 1010.78 1011.24 1011.68 1012.09 1012.45 1012.77 1013.06 1013.30 1013.51 1013.69 1013.85 1013.96 1014.02 1014.03 1013.98 1013.86 1013.69 1013.47 1013.23 1013.00 1012.80 1012.64 1012.54 1012.50 1012.50 1012.54 1012.57 1012.58 1012.55 1012.45 1012.30 1012.08 1011.82 1011.54 1011.27
1007.23 1007.51 1007.82 1008.17 1008.56 1008.97 1009.42 1009.87 1010.33 1010.77 1011.19 1011.57 1011.92 1012.25 1012.54 1012.81 1013.05 1013.27 1013.45 1013.59 1013.67 1013.68 1013.61 1013.46 1013.24 1012.98 1012.70 1012.43 1012.20 1012.03 1011.93 1011.91 1011.96 1012.04 1012.12 1012.19 1012.20 1012.15 1012.02 1011.81 1011.55 1011.26 1010.96
1006.84 1007.14 1007.47 1007.84 1008.24 1008.65 1009.08 1009.52 1009.95 1010.36 1010.74 1011.10 1011.44 1011.75 1012.06 1012.35 1012.62 1012.87 1013.09 1013.25 1013.35 1013.36 1013.28 1013.11 1012.86 1012.56 1012.25 1011.95 1011.69 1011.51 1011.42 1011.41 1011.48 1011.59 1011.72 1011.82 1011.88 1011.86 1011.76 1011.57 1011.32 1011.02 1010.70
1006.50 1006.83 1007.19 1007.58 1007.98 1008.40 1008.82 1009.23 1009.63 1010.01 1010.36 1010.70 1011.02 1011.34 1011.65 1011.97 1012.27 1012.56 1012.81 1013.00 1013.12 1013.14 1013.06 1012.88 1012.63 1012.31 1011.98 1011.66 1011.39 1011.20 1011.10 1011.10 1011.17 1011.29 1011.43 1011.56 1011.64 1011.65 1011.56 1011.40 1011.16 1010.86 1010.54
1006.18 1006.54 1006.93 1007.33 1007.75 1008.17 1008.58 1008.98 1009.35 1009.71 1010.04 1010.37 1010.69 1011.02 1011.36 1011.70 1012.04 1012.37 1012.65 1012.88 1013.03 1013.07 1013.01 1012.85 1012.60 1012.29 1011.96 1011.64 1011.36 1011.16 1011.05 1011.03 1011.08 1011.20 1011.33 1011.45 1011.53 1011.54 1011.47 1011.32 1011.09 1010.80 1010.47
1005.81 1006.20 1006.62 1007.06 1007.49 1007.92 1008.33 1008.72 1009.09 1009.44 1009.78 1010.11 1010.45 1010.81 1011.17 1011.56 1011.94 1012.31 1012.64 1012.91 1013.09 1013.18 1013.15 1013.02 1012.80 1012.51 1012.20 1011.89 1011.62 1011.41 1011.29 1011.24 1011.27 1011.35 1011.45 1011.54 1011.59 1011.59 1011.51 1011.36 1011.14 1010.85 1010.53
1005.36 1005.79 1006.25 1006.72 1007.17 1007.62 1008.05 1008.45 1008.83 1009.19 1009.55 1009.91 1010.29 1010.68 1011.10 1011.53 1011.96 1012.38 1012.76 1013.07 1013.30 1013.43 1013.45 1013.36 1013.18 1012.95 1012.67 1012.39 1012.14 1011.93 1011.80 1011.72 1011.71 1011.74 1011.79 1011.83 1011.84 1011.81 1011.71 1011.55 1011.32 1011.05 1010.73
Thickness
5723 5722 5719 5716 5711 5707 5702 5698 5694 5691 5687 5683 5679 5675 5672 5671 5670 5669 5668 5667 5666 5666 5666 5666 5667 5668 5669 5671 5674 5677 5681 5685 5690 5693 5696 5702 5708 5713 5717 5721 5725 5728 5731
5720 5719 5717 5714 5710 5705 5701 5697 5693 5690 5686 5682 5678 5674 5671 5668 5667 5666 5665 5664 5663 5663 5663 5662 5662 5663 5664 5665 5668 5670 5673 5677 5682 5684 5686 5688 5695 5704 5711 5714 5718 5722 5725
5719 5717 5715 5712 5708 5704 5701 5698 5693 5689 5686 5682 5678 5674 5670 5667 5664 5663 5662 5662 5661 5660 5659 5659 5659 5659 5660 5661 5663 5665 5667 5669 5675 5679 5681 5681 5683 5691 5700 5706 5711 5715 5718
5721 5718 5715 5711 5708 5705 5702 5697 5693 5689 5686 5682 5677 5672 5667 5662 5661 5659 5658 5659 5658 5658 5657 5656 5656 5656 5656 5657 5659 5661 5662 5665 5667 5672 5677 5680 5682 5683 5688 5696 5703 5708 5711
5722 5718 5716 5713 5710 5706 5702 5698 5693 5689 5686 5681 5677 5672 5667 5663 5661 5659 5658 5657 5657 5656 5655 5654 5653 5653 5653 5654 5655 5657 5659 5661 5663 5666 5670 5673 5677 5681 5681 5685 5691 5698 5704
5722 5719 5717 5713 5709 5706 5702 5698 5693 5690 5686 5682 5677 5672 5668 5664 5661 5659 5657 5655 5655 5654 5653 5652 5651 5651 5651 5652 5653 5654 5656 5658 5660 5662 5665 5668 5671 5673 5677 5679 5682 5688 5695
5721 5718 5715 5712 5708 5705 5702 5698 5693 5690 5686 5682 5678 5673 5669 5666 5662 5659 5656 5654 5652 5652 5651 5651 5650 5649 5649 5650 5651 5652 5653 5655 5657 5659 5661 5665 5668 5671 5673 5675 5677 5680 5687
5721 5719 5716 5712 5709 5706 5702 5698 5694 5690 5687 5682 5679 5675 5671 5667 5663 5660 5657 5655 5653 5652 5651 5650 5650 5649 5649 5649 5650 5650 5651 5652 5654 5656 5658 5661 5664 5667 5670 5672 5672 5674 5678
5723 5720 5717 5713 5710 5706 5703 5699 5695 5691 5687 5684 5680 5676 5672 5668 5665 5662 5659 5656 5654 5653 5652 5651 5650 5649 5649 5649 5649 5649 5649 5650 5651 5653 5655 5657 5660 5663 5666 5668 5670 5670 5671
5723 5721 5718 5715 5711 5708 5704 5700 5696 5692 5689 5685 5681 5678 5674 5670 5667 5663 5660 5658 5656 5654 5652 5651 5650 5649 5649 5648 5648 5647 5648 5648 5649 5650 5652 5654 5656 5659 5661 5663 5666 5668 5669
5724 5722 5719 5716 5712 5708 5704 5700 5696 5693 5689 5686 5682 5678 5674 5671 5668 5664 5662 5659 5657 5655 5653 5651 5650 5649 5649 5648 5647 5647 5647 5647 5647 5648 5650 5651 5653 5655 5657 5659 5661 5663 5666
5727 5724 5720 5716 5712 5708 5704 5700 5697 5693 5690 5686 5682 5678 5675 5672 5668 5665 5663 5660 5658 5656 5654 5652 5651 5650 5649 5648 5647 5647 5647 5646 5646 5647 5648 5649 5650 5651 5653 5655 5657 5659 5662
5727 5723 5719 5715 5712 5708 5705 5701 5698 5694 5691 5687 5683 5679 5675 5672 5669 5666 5664 5661 5658 5656 5654 5653 5651 5650 5649 5648 5647 5647 5646 5646 5646 5646 5646 5646 5647 5648 5650 5651 5653 5655 5658
5727 5723 5719 5716 5713 5709 5706 5702 5699 5695 5692 5687 5683 5679 5676 5673 5670 5667 5664 5662 5659 5657 5655 5653 5652 5650 5650 5649 5648 5647 5646 5645 5645 5645 5645 5645 5646 5646 5647 5649 5650 5651 5653
5727 5725 5721 5717 5713 5710 5706 5703 5699 5696 5692 5687 5683 5680 5677 5674 5670 5668 5665 5662 5660 5658 5655 5653 5652 5651 5651 5650 5649 5647 5646 5644 5643 5644 5644 5645 5645 5646 5647 5648 5648 5649 5649
5729 5727 5724 5719 5715 5712 5708 5704 5700 5696 5692 5687 5684 5681 5677 5674 5671 5668 5665 5662 5660 5658 5655 5653 5652 5651 5651 5651 5650 5649 5646 5645 5643 5643 5643 5644 5644 5645 5646 5647 5647 5648 5647
5732 5729 5726 5722 5718 5714 5710 5705 5702 5697 5692 5688 5684 5681 5677 5674 5671 5668 5665 5662 5659 5657 5655 5653 5651 5650 5650 5651 5651 5649 5647 5645 5643 5642 5641 5642 5643 5643 5643 5644 5645 5645 5647
5734 5731 5728 5724 5720 5716 5712 5707 5702 5697 5692 5688 5684 5681 5677 5674 5671 5667 5664 5662 5659 5656 5654 5653 5651 5650 5650 5651 5650 5649 5646 5644 5642 5641 5640 5639 5640 5641 5641 5641 5642 5642 5644
5737 5734 5731 5726 5721 5716 5712 5706 5700 5696 5691 5688 5685 5682 5678 5674 5670 5667 5664 5661 5658 5656 5654 5652 5651 5649 5649 5650 5649 5648 5645 5643 5641 5640 5640 5639 5639 5640 5640 5640 5640 5640 5641
5737 5733 5729 5724 5719 5715 5710 5704 5699 5694 5691 5688 5685 5682 5678 5674 5670 5667 5664 5661 5658 5656 5654 5652 5650 5649 5648 5649 5649 5647 5644 5641 5640 5639 5639 5639 5638 5639 5638 5637 5637 5637 5638
5735 5731 5726 5721 5717 5713 5708 5702 5697 5694 5692 5689 5685 5681 5677 5674 5670 5667 5663 5660 5658 5655 5653 5651 5650 5648 5648 5648 5648 5646 5643 5640 5639 5637 5636 5637 5637 5637 5637 5636 5635 5635 5636
5729 5725 5721 5716 5713 5710 5705 5700 5695 5694 5691 5687 5683 5679 5676 5673 5670 5665 5662 5659 5656 5654 5651 5649 5648 5648 5647 5646 5646 5645 5643 5641 5638 5636 5635 5635 5635 5635 5635 5634 5634 5634 5635
5724 5720 5716 5711 5707 5704 5702 5697 5695 5692 5687 5683 5679 5676 5673 5669 5667 5663 5660 5657 5654 5651 5649 5647 5645 5644 5644 5643 5644 5643 5642 5640 5637 5634 5634 5633 5633 5632 5632 5632 5632 5632 5631
5718 5715 5710 5706 5702 5699 5697 5695 5692 5688 5683 5679 5675 5671 5668 5665 5662 5660 5657 5654 5651 5648 5646 5644 5642 5641 5640 5640 5640 5639 5638 5637 5634 5632 5630 5630 5629 5628 5627 5627 5626 5626 5626
5712 5709 5705 5701 5698 5694 5691 5689 5686 5683 5678 5674 5670 5667 5664 5660 5657 5655 5652 5650 5648 5645 5643 5641 5638 5637 5636 5637 5637 5635 5633 5631 5629 5627 5625 5623 5622 5621 5620 5620 5620 5620 5621
5706 5702 5698 5695 5692 5689 5686 5683 5680 5677 5673 5668 5664 5661 5657 5654 5651 5648 5646 5645 5643 5642 5640 5638 5635 5633 5633 5633 5633 5631 5630 5627 5625 5621 5618 5615 5614 5613 5612 5612 5613 5613 5613